This is the latest recevied weather packets stored in our database for station/object N4AR. If no packets are shown the sender has not sent any weather packets the latest 10 day(s).
| Time | Temp. | Humidity | Pressure | Rain* | Wind** | Luminosity | Snow |
|---|---|---|---|---|---|---|---|
| 1777911223 | 25° C | 34% | 1015.6 hPa | 0 mm | - | 850 W/m² | - |
| 1777910920 | 25° C | 37% | 1015.4 hPa | 0 mm | - | 838 W/m² | - |
| 1777910617 | 25° C | 35% | 1015.5 hPa | 0 mm | - | 829 W/m² | - |
| 1777910314 | 25.56° C | 35% | 1015.7 hPa | 0 mm | - | 825 W/m² | - |
| 1777910011 | 25° C | 36% | 1015.8 hPa | 0 mm | - | 818 W/m² | - |
| 1777909708 | 23.89° C | 37% | 1015.7 hPa | 0 mm | - | 803 W/m² | - |
| 1777909405 | 23.89° C | 38% | 1015.9 hPa | 0 mm | - | 793 W/m² | - |
| 1777909103 | 23.89° C | 36% | 1016 hPa | 0 mm | - | 788 W/m² | - |
| 1777908801 | 23.33° C | 38% | 1016 hPa | 0 mm | - | 783 W/m² | - |
| 1777908497 | 22.78° C | 38% | 1015.9 hPa | 0 mm | - | 766 W/m² | - |
| 1777908194 | 22.78° C | 39% | 1016.1 hPa | 0 mm | - | 756 W/m² | - |
| 1777907890 | 23.89° C | 40% | 1016 hPa | 0 mm | - | 744 W/m² | - |
| 1777907586 | 23.33° C | 39% | 1016 hPa | 0 mm | - | 472 W/m² | - |
| 1777907282 | 22.22° C | 41% | 1016.2 hPa | 0 mm | - | 718 W/m² | - |
| 1777906978 | 21.67° C | 41% | 1016.1 hPa | 0 mm | - | 705 W/m² | - |
| 1777906676 | 22.22° C | 40% | 1016.1 hPa | 0 mm | - | 690 W/m² | - |
| 1777906372 | 22.22° C | 41% | 1016 hPa | 0 mm | - | 682 W/m² | - |
| 1777906069 | 21.67° C | 42% | 1016.3 hPa | 0 mm | - | 669 W/m² | - |
| 1777905765 | 21.67° C | 43% | 1016.5 hPa | 0 mm | - | 363 W/m² | - |
| 1777905463 | 21.67° C | 41% | 1016.4 hPa | 0 mm | - | 640 W/m² | - |
| 1777905160 | 21.11° C | 43% | 1016.6 hPa | 0 mm | - | 626 W/m² | - |
| 1777904857 | 20.56° C | 43% | 1016.3 hPa | 0 mm | - | 609 W/m² | - |
| 1777904555 | 21.11° C | 42% | 1016.4 hPa | 0 mm | - | 594 W/m² | - |
| 1777904251 | 21.67° C | 41% | 1016.4 hPa | 0 mm | - | 580 W/m² | - |
| 1777903949 | 21.11° C | 43% | 1016.3 hPa | 0 mm | - | 562 W/m² | - |
* Rain latest hour (hover to see other rain measurements)
** Current wind speed in m/s (hover to see current wind gust speed)